Location: Newark
(30.0000°S, 28.7500°E)
Time: 07:14:02
(UTC+00:00)

Hubble Space Telescope - Visible Passes

Search period start: 20 September 2020 00:00
Search period end: 30 September 2020 00:00
Orbit: 536 x 540 km, 28.5° (Epoch: 19 September)

Date Brightness Start Highest point End Pass type
(mag) Time Alt. Az. Time Alt. Az. Time Alt. Az.
20 Sep 1.2 17:33:00 10° WNW 17:36:55 48° N 17:36:55 48° N visible
21 Sep 1.0 17:22:13 10° WNW 17:26:19 56° N 17:27:00 48° NE visible
22 Sep 0.9 17:11:27 10° WNW 17:15:34 62° N 17:17:02 37° ENE visible
23 Sep 0.8 17:00:42 10° WNW 17:04:51 67° N 17:07:01 27° E visible
23 Sep 3.8 18:41:49 10° W 18:42:21 13° W 18:42:21 13° W visible
24 Sep 0.8 16:49:57 10° W 16:54:08 71° N 16:56:58 20° E visible
24 Sep 3.4 18:31:07 10° W 18:32:18 18° W 18:32:18 18° W visible
25 Sep 0.8 16:39:14 10° W 16:43:24 73° N 16:46:55 14° E visible
25 Sep 2.9 18:20:26 10° W 18:22:14 24° W 18:22:14 24° W visible
26 Sep 0.9 16:28:31 10° W 16:32:42 72° N 16:36:50 10° E visible
26 Sep 2.4 18:09:45 10° W 18:12:10 30° WNW 18:12:10 30° WNW visible
27 Sep 2.1 17:59:06 10° W 18:02:06 34° NW 18:02:06 34° NW visible
28 Sep 2.0 17:48:29 10° W 17:52:04 32° NNW 17:52:04 32° NNW visible
29 Sep 2.2 17:37:54 10° W 17:41:28 27° NNW 17:42:03 26° N visible
